| time (UTC) | temp F | wind direction | speed MPH | gust MPH | rain 1hr in | rain 24hr in | rain mn in | humidity % | barometer mb |
| 20260506134304 | 32 | 13 | 0.0 | 0.0 | 0.00 | 0.56 | 0.06 | 95 | 1011.5 |
| 20260506133305 | 32 | 14 | 0.0 | 0.0 | 0.00 | 0.57 | 0.06 | 95 | 1011.5 |
| 20260506132805 | 32 | 14 | 0.0 | 0.0 | 0.00 | 0.57 | 0.06 | 95 | 1011.5 |
| 20260506131804 | 32 | 14 | 0.0 | 0.0 | 0.00 | 0.57 | 0.06 | 95 | 1011.5 |
| 20260506131305 | 32 | 14 | 0.0 | 0.0 | 0.00 | 0.58 | 0.06 | 95 | 1011.5 |
| 20260506130805 | 32 | 14 | 0.0 | 0.0 | 0.00 | 0.58 | 0.06 | 95 | 1011.5 |
| 20260506130304 | 32 | 14 | 0.0 | 0.0 | 0.00 | 0.59 | 0.06 | 95 | 1011.5 |
| 20260506125805 | 32 | 14 | 0.0 | 0.0 | 0.00 | 0.59 | 0.06 | 95 | 1011.5 |
| 20260506125306 | 32 | 14 | 0.0 | 0.0 | 0.00 | 0.59 | 0.06 | 95 | 1011.5 |
| 20260506124805 | 32 | 14 | 0.0 | 0.0 | 0.00 | 0.60 | 0.06 | 96 | 1011.5 |
| 20260506123305 | 32 | 14 | 0.0 | 0.0 | 0.00 | 0.60 | 0.06 | 95 | 1011.5 |
| 20260506122805 | 32 | 14 | 0.0 | 0.0 | 0.00 | 0.60 | 0.06 | 95 | 1011.5 |
| 20260506122306 | 32 | 14 | 0.0 | 0.0 | 0.00 | 0.61 | 0.06 | 95 | 1011.5 |
| 20260506121306 | 32 | 14 | 0.0 | 0.0 | 0.00 | 0.61 | 0.06 | 95 | 1011.5 |
| 20260506120304 | 32 | 14 | 0.0 | 0.0 | 0.00 | 0.62 | 0.06 | 95 | 1011.5 |
| 20260506115805 | 32 | 14 | 0.0 | 0.0 | 0.00 | 0.62 | 0.06 | 95 | 1011.5 |
| 20260506115307 | 32 | 14 | 0.0 | 0.0 | 0.00 | 0.62 | 0.06 | 95 | 1011.5 |
| 20260506113804 | 32 | 14 | 0.0 | 0.0 | 0.00 | 0.64 | 0.06 | 95 | 1011.5 |
| 20260506113304 | 32 | 14 | 0.0 | 0.0 | 0.00 | 0.65 | 0.06 | 95 | 1011.5 |
| 20260506112805 | 32 | 14 | 0.0 | 0.0 | 0.00 | 0.65 | 0.06 | 95 | 1011.5 |
| 20260506112306 | 32 | 14 | 0.0 | 0.0 | 0.00 | 0.65 | 0.06 | 95 | 1011.5 |
| 20260506110804 | 32 | 14 | 0.0 | 0.0 | 0.00 | 0.66 | 0.06 | 95 | 1011.5 |
| 20260506110304 | 32 | 14 | 0.0 | 0.0 | 0.00 | 0.66 | 0.06 | 95 | 1011.5 |
| 20260506105804 | 32 | 14 | 0.0 | 0.0 | 0.00 | 0.66 | 0.06 | 95 | 1011.5 |
| 20260506105305 | 32 | 14 | 0.0 | 0.0 | 0.00 | 0.66 | 0.06 | 95 | 1011.5 |
| 20260506104804 | 32 | 14 | 0.0 | 0.0 | 0.00 | 0.66 | 0.06 | 95 | 1011.5 |
| 20260506102804 | 31 | 14 | 0.0 | 0.0 | 0.00 | 0.67 | 0.06 | 95 | 1011.5 |
| 20260506101305 | 32 | 14 | 0.0 | 0.0 | 0.00 | 0.68 | 0.06 | 95 | 1011.5 |
| 20260506095305 | 32 | 14 | 0.0 | 0.0 | 0.00 | 0.70 | 0.06 | 95 | 1011.5 |
| 20260506094804 | 32 | 14 | 0.0 | 0.0 | 0.01 | 0.71 | 0.06 | 95 | 1011.5 |
| 20260506094304 | 32 | 14 | 0.0 | 0.0 | 0.01 | 0.71 | 0.06 | 95 | 1011.5 |
| 20260506093804 | 32 | 14 | 0.0 | 0.0 | 0.01 | 0.71 | 0.06 | 95 | 1011.5 |
| 20260506092805 | 32 | 14 | 0.0 | 0.0 | 0.01 | 0.71 | 0.06 | 95 | 1011.5 |
| 20260506091805 | 32 | 14 | 0.0 | 0.0 | 0.01 | 0.71 | 0.06 | 95 | 1011.5 |
| 20260506091305 | 32 | 14 | 0.0 | 0.0 | 0.01 | 0.71 | 0.06 | 95 | 1011.5 |
| 20260506085804 | 32 | 14 | 0.0 | 0.0 | 0.01 | 0.71 | 0.06 | 95 | 1011.5 |
| 20260506085306 | 32 | 14 | 0.0 | 0.0 | 0.01 | 0.71 | 0.06 | 95 | 1011.5 |
| 20260506082805 | 32 | 14 | 0.0 | 0.0 | 0.01 | 0.72 | 0.05 | 95 | 1011.5 |
| 20260506080804 | 32 | 14 | 0.0 | 0.0 | 0.03 | 0.74 | 0.05 | 95 | 1011.5 |
| 20260506080304 | 32 | 13 | 0.0 | 0.0 | 0.04 | 0.74 | 0.05 | 95 | 1011.5 |
| 20260506073305 | 32 | 32 | 0.0 | 0.0 | 0.04 | 0.73 | 0.04 | 95 | 1008.1 |
| 20260506072804 | 32 | 34 | 0.0 | 0.0 | 0.04 | 0.73 | 0.04 | 95 | 1008.1 |
| 20260506070804 | 32 | 347 | 0.0 | 0.0 | 0.02 | 0.71 | 0.02 | 95 | 1008.1 |
| 20260506070304 | 32 | 0 | 0.0 | 0.0 | 0.01 | 0.70 | 0.01 | 95 | 1008.1 |
| 20260506061804 | 32 | 358 | 0.0 | 0.0 | 0.02 | 0.69 | 0.00 | 95 | 1008.1 |
| 20260506060817 | 32 | 355 | 0.0 | 0.0 | 0.03 | 0.69 | 0.00 | 95 | 1008.1 |
| 20260506051304 | 32 | 337 | 0.0 | 0.0 | 0.04 | 0.66 | 0.66 | 95 | 1008.1 |
| 20260506050805 | 32 | 337 | 1.0 | 2.0 | 0.04 | 0.66 | 0.66 | 95 | 1008.1 |
| 20260506044804 | 32 | 337 | 0.0 | 1.0 | 0.04 | 0.64 | 0.64 | 95 | 1008.1 |
| 20260506044304 | 32 | 337 | 1.0 | 2.0 | 0.04 | 0.64 | 0.64 | 95 | 1008.1 |
| 20260506043805 | 32 | 337 | 0.0 | 2.0 | 0.04 | 0.64 | 0.64 | 95 | 1008.1 |
| 20260506042804 | 32 | 311 | 1.0 | 2.0 | 0.03 | 0.64 | 0.63 | 95 | 1008.1 |
| 20260506041805 | 32 | 355 | 1.0 | 3.0 | 0.04 | 0.65 | 0.63 | 95 | 1008.1 |
| 20260506041304 | 32 | 6 | 2.0 | 3.0 | 0.03 | 0.64 | 0.62 | 95 | 1008.1 |
| 20260506040804 | 32 | 351 | 3.0 | 5.0 | 0.03 | 0.64 | 0.62 | 95 | 1008.1 |
| 20260506033304 | 32 | 325 | 2.0 | 3.0 | 0.04 | 0.64 | 0.60 | 95 | 1008.1 |
| 20260506032804 | 32 | 339 | 2.0 | 5.0 | 0.04 | 0.65 | 0.60 | 95 | 1008.1 |
| 20260506032305 | 32 | 346 | 2.0 | 5.0 | 0.04 | 0.64 | 0.59 | 95 | 1008.1 |
| 20260506030804 | 32 | 327 | 4.0 | 7.0 | 0.08 | 0.66 | 0.59 | 95 | 1008.1 |
| 20260506030304 | 32 | 309 | 2.0 | 5.0 | 0.10 | 0.67 | 0.59 | 95 | 1008.1 |
| 20260506025306 | 32 | 328 | 3.0 | 6.0 | 0.13 | 0.66 | 0.58 | 95 | 1008.1 |
| 20260506024304 | 32 | 321 | 4.0 | 6.0 | 0.15 | 0.65 | 0.57 | 95 | 1008.1 |
| 20260506023304 | 32 | 343 | 3.0 | 6.0 | 0.15 | 0.64 | 0.56 | 95 | 1008.1 |
| 20260506022805 | 32 | 329 | 3.0 | 7.0 | 0.15 | 0.64 | 0.56 | 95 | 1008.1 |
| 20260506022306 | 32 | 347 | 3.0 | 7.0 | 0.14 | 0.63 | 0.55 | 95 | 1008.1 |
| 20260506021805 | 32 | 341 | 2.0 | 3.0 | 0.13 | 0.62 | 0.54 | 95 | 1008.1 |
| 20260506020304 | 33 | 330 | 2.0 | 6.0 | 0.08 | 0.57 | 0.49 | 95 | 1008.1 |
| 20260506015805 | 33 | 329 | 3.0 | 6.0 | 0.06 | 0.55 | 0.47 | 95 | 1008.1 |
| 20260506015306 | 33 | 335 | 5.0 | 8.0 | 0.05 | 0.53 | 0.45 | 94 | 1008.1 |
| 20260506014304 | 33 | 353 | 4.0 | 9.0 | 0.02 | 0.50 | 0.42 | 94 | 1008.1 |
| 20260506012805 | 33 | 343 | 4.0 | 6.0 | 0.01 | 0.49 | 0.41 | 94 | 1008.1 |
| 20260506011804 | 33 | 346 | 4.0 | 9.0 | 0.01 | 0.49 | 0.41 | 94 | 1008.1 |
| 20260506010804 | 33 | 343 | 4.0 | 7.0 | 0.01 | 0.49 | 0.41 | 94 | 1008.1 |
| 20260506010304 | 33 | 359 | 4.0 | 8.0 | 0.01 | 0.49 | 0.41 | 94 | 1008.1 |
| 20260506005805 | 33 | 351 | 3.0 | 7.0 | 0.01 | 0.49 | 0.41 | 94 | 1008.1 |
| 20260506003805 | 33 | 350 | 3.0 | 6.0 | 0.00 | 0.48 | 0.40 | 94 | 1008.1 |
| 20260506003304 | 33 | 330 | 3.0 | 8.0 | 0.00 | 0.48 | 0.40 | 94 | 1008.1 |
| 20260506002804 | 33 | 327 | 4.0 | 7.0 | 0.00 | 0.48 | 0.40 | 94 | 1008.1 |
| 20260506002306 | 33 | 349 | 5.0 | 9.0 | 0.00 | 0.48 | 0.40 | 94 | 1008.1 |
| 20260506001304 | 33 | 326 | 4.0 | 8.0 | 0.00 | 0.48 | 0.40 | 94 | 1008.1 |
| 20260506000804 | 33 | 350 | 3.0 | 7.0 | 0.00 | 0.48 | 0.40 | 94 | 1008.1 |
| 20260506000304 | 33 | 348 | 6.0 | 10.0 | 0.00 | 0.48 | 0.40 | 94 | 1008.1 |
| 20260505235804 | 32 | 340 | 3.0 | 8.0 | 0.00 | 0.48 | 0.40 | 94 | 1008.1 |
| 20260505234804 | 32 | 329 | 5.0 | 8.0 | 0.01 | 0.48 | 0.40 | 94 | 1008.1 |
| 20260505231804 | 33 | 330 | 5.0 | 10.0 | 0.02 | 0.48 | 0.40 | 93 | 1008.1 |
| 20260505231304 | 33 | 345 | 5.0 | 8.0 | 0.02 | 0.48 | 0.40 | 93 | 1008.1 |
| 20260505230804 | 33 | 335 | 5.0 | 14.0 | 0.03 | 0.48 | 0.40 | 93 | 1008.1 |
| 20260505225804 | 35 | 306 | 10.0 | 16.0 | 0.03 | 0.48 | 0.40 | 93 | 1008.1 |
| 20260505225305 | 35 | 332 | 8.0 | 16.0 | 0.03 | 0.48 | 0.40 | 93 | 1008.1 |
| 20260505224304 | 36 | 332 | 7.0 | 12.0 | 0.03 | 0.47 | 0.39 | 93 | 1008.1 |
| 20260505223804 | 36 | 329 | 6.0 | 14.0 | 0.03 | 0.46 | 0.38 | 93 | 1008.1 |
| 20260505221804 | 37 | 334 | 9.0 | 14.0 | 0.04 | 0.46 | 0.38 | 93 | 1008.1 |
| 20260505220804 | 36 | 335 | 5.0 | 12.0 | 0.05 | 0.45 | 0.37 | 93 | 1008.1 |
| 20260505220304 | 37 | 347 | 8.0 | 13.0 | 0.05 | 0.45 | 0.37 | 94 | 1008.1 |
| 20260505214304 | 36 | 346 | 5.0 | 12.0 | 0.05 | 0.44 | 0.36 | 93 | 1008.1 |
| 20260505211304 | 39 | 355 | 5.0 | 9.0 | 0.04 | 0.41 | 0.33 | 92 | 1008.1 |
| 20260505210804 | 39 | 30 | 6.0 | 10.0 | 0.03 | 0.40 | 0.32 | 92 | 1008.1 |
| 20260505210304 | 39 | 355 | 5.0 | 9.0 | 0.03 | 0.40 | 0.32 | 92 | 1008.1 |
| 20260505205804 | 39 | 29 | 5.0 | 7.0 | 0.02 | 0.39 | 0.31 | 92 | 1008.1 |
| 20260505205305 | 39 | 7 | 6.0 | 8.0 | 0.02 | 0.39 | 0.31 | 93 | 1008.1 |
| 20260505204804 | 39 | 354 | 5.0 | 8.0 | 0.02 | 0.39 | 0.31 | 92 | 1008.1 |
| 20260505203304 | 39 | 22 | 5.0 | 12.0 | 0.02 | 0.39 | 0.31 | 92 | 1008.1 |
| 20260505202804 | 39 | 41 | 6.0 | 10.0 | 0.01 | 0.38 | 0.30 | 92 | 1008.1 |
| 20260505202306 | 39 | 11 | 6.0 | 9.0 | 0.01 | 0.38 | 0.30 | 92 | 1008.1 |
| 20260505200804 | 39 | 354 | 6.0 | 10.0 | 0.00 | 0.37 | 0.29 | 92 | 1008.1 |
| 20260505195305 | 39 | 5 | 7.0 | 12.0 | 0.00 | 0.37 | 0.29 | 91 | 1008.1 |
| 20260505194304 | 39 | 14 | 6.0 | 9.0 | 0.00 | 0.37 | 0.29 | 91 | 1008.1 |
| 20260505192305 | 40 | 21 | 5.0 | 8.0 | 0.00 | 0.37 | 0.29 | 92 | 1008.1 |
| 20260505191304 | 39 | 26 | 3.0 | 6.0 | 0.01 | 0.37 | 0.29 | 91 | 1008.1 |
| 20260505190804 | 39 | 9 | 6.0 | 8.0 | 0.01 | 0.37 | 0.29 | 92 | 1008.1 |
| 20260505183804 | 39 | 46 | 4.0 | 8.0 | 0.02 | 0.37 | 0.29 | 93 | 1008.1 |
| 20260505183304 | 39 | 54 | 5.0 | 7.0 | 0.02 | 0.37 | 0.29 | 93 | 1008.1 |
| 20260505182804 | 39 | 58 | 4.0 | 7.0 | 0.03 | 0.37 | 0.29 | 94 | 1008.1 |
| 20260505181305 | 38 | 50 | 3.0 | 10.0 | 0.02 | 0.36 | 0.28 | 93 | 1008.1 |
| 20260505180804 | 38 | 44 | 2.0 | 6.0 | 0.02 | 0.36 | 0.28 | 93 | 1008.1 |
| 20260505175804 | 38 | 45 | 5.0 | 7.0 | 0.02 | 0.36 | 0.28 | 93 | 1008.0 |
| 20260505175305 | 38 | 30 | 5.0 | 8.0 | 0.02 | 0.36 | 0.28 | 93 | 1008.0 |
| 20260505173804 | 38 | 19 | 3.0 | 5.0 | 0.02 | 0.35 | 0.27 | 93 | 1008.0 |
| 20260505171304 | 38 | 0 | 3.0 | 5.0 | 0.02 | 0.34 | 0.26 | 94 | 1008.0 |
| 20260505170804 | 38 | 322 | 5.0 | 6.0 | 0.02 | 0.34 | 0.26 | 94 | 1008.0 |
| 20260505165306 | 37 | 18 | 3.0 | 6.0 | 0.03 | 0.34 | 0.26 | 93 | 1008.0 |
| 20260505164804 | 37 | 339 | 2.0 | 5.0 | 0.02 | 0.33 | 0.25 | 94 | 1008.0 |
| 20260505162306 | 37 | 44 | 2.0 | 5.0 | 0.01 | 0.32 | 0.24 | 94 | 1008.0 |
| 20260505161804 | 37 | 358 | 4.0 | 7.0 | 0.01 | 0.32 | 0.24 | 94 | 1008.0 |
| 20260505161305 | 37 | 15 | 3.0 | 5.0 | 0.01 | 0.32 | 0.24 | 94 | 1008.0 |
| 20260505160804 | 37 | 5 | 2.0 | 5.0 | 0.01 | 0.32 | 0.24 | 94 | 1008.0 |
| 20260505160304 | 37 | 352 | 4.0 | 7.0 | 0.01 | 0.32 | 0.24 | 94 | 1008.0 |
| 20260505153304 | 36 | 322 | 3.0 | 8.0 | 0.02 | 0.31 | 0.23 | 94 | 1008.0 |
| 20260505152305 | 36 | 318 | 4.0 | 7.0 | 0.02 | 0.31 | 0.23 | 94 | 1008.0 |
| 20260505151804 | 36 | 254 | 2.0 | 5.0 | 0.02 | 0.31 | 0.23 | 94 | 1008.0 |
| 20260505150804 | 36 | 278 | 2.0 | 6.0 | 0.03 | 0.31 | 0.23 | 94 | 1008.0 |